Location: Observatoire
(46.1952°N, 5.3391°E)
Time: 11:57:54
(UTC+01:00)

Transit 4A - Visible Passes

Search period start: 16 February 2026 00:00
Search period end: 26 February 2026 00:00
Orbit: 865 x 976 km, 66.8° (Epoch: 16 February)

Date Brightness Start Highest point End Pass type
(mag) Time Alt. Az. Time Alt. Az. Time Alt. Az.
16 Feb 8.0 04:45:19 65° ESE 04:45:24 65° ESE 04:51:21 10° NE visible
16 Feb 8.8 06:28:49 18° W 06:32:12 29° NW 06:37:26 10° NNE visible
17 Feb 10.4 03:10:47 13° E 03:10:47 13° E 03:12:07 10° ENE visible
17 Feb 7.7 04:54:17 85° NNE 04:54:17 85° NNE 05:00:10 10° NNE visible
17 Feb 9.1 06:37:47 14° WNW 06:41:17 23° NW 06:46:03 10° NNE visible
18 Feb 10.1 03:19:40 18° ENE 03:19:40 18° ENE 03:21:44 10° NE visible
18 Feb 7.8 05:03:09 65° NW 05:03:09 65° NW 05:08:56 10° NNE visible
18 Feb 9.4 06:46:39 11° WNW 06:50:27 19° NNW 06:54:39 10° NNE visible
19 Feb 9.9 03:28:28 22° ENE 03:28:28 22° ENE 03:30:58 10° NE visible
19 Feb 8.1 05:11:57 48° NW 05:11:57 48° NW 05:17:38 10° NNE visible
19 Feb 9.6 06:56:13 10° WNW 06:59:42 16° NNW 07:03:14 10° NNE visible
20 Feb 9.6 03:37:12 27° NE 03:37:12 27° NE 03:39:59 10° NE visible
20 Feb 8.5 05:20:41 36° NW 05:20:43 36° NW 05:26:17 10° NNE visible
21 Feb 9.4 03:45:53 30° NE 03:45:53 30° NE 03:48:53 10° NE visible
21 Feb 8.9 05:29:21 28° NW 05:29:45 28° NW 05:34:55 10° NNE visible
22 Feb 9.3 03:54:31 32° NNE 03:54:31 32° NNE 03:57:41 10° NNE visible
22 Feb 9.2 05:37:59 21° NW 05:38:52 22° NW 05:43:32 10° NNE visible
23 Feb 9.2 04:03:06 33° NNE 04:03:06 33° NNE 04:06:25 10° NNE visible
23 Feb 9.4 05:46:34 17° NW 05:48:03 18° NNW 05:52:07 10° NNE visible
24 Feb 10.6 02:28:11 12° NE 02:28:11 12° NE 02:28:32 10° NE visible
24 Feb 9.2 04:11:39 31° N 04:11:39 31° N 04:15:07 10° NNE visible
24 Feb 9.7 05:55:07 13° NW 05:57:19 15° NNW 06:00:43 10° N visible
25 Feb 10.5 02:36:43 14° NE 02:36:43 14° NE 02:37:32 10° NE visible
25 Feb 9.2 04:20:11 28° N 04:20:11 28° N 04:23:46 10° NNE visible
25 Feb 9.9 06:04:00 10° NW 06:06:38 13° NNW 06:09:18 10° N visible
